Allentown, PA

9:28 AM EDT on August 16, 2017 (GMT -0400)
Allentown

Weather History for KXLL - September, 2012

Change the Weather History Date:

Tuesday, September 25, 2012

  Actual Average (KABE) Record (KABE)
Temperature  
Mean Temperature 55 °F -  
Max Temperature 71 °F 68 °F 92 °F (1970)
Min Temperature 39 °F 48 °F 33 °F (1963)
Degree Days  
Heating Degree Days 10    
Growing Degree Days 5 (Base 50)    
Moisture  
Dew Point 43 °F    
Average Humidity 64    
Maximum Humidity 93    
Minimum Humidity 33    
Precipitation  
Precipitation 0.00 in - - ()
Sea Level Pressure  
Sea Level Pressure 30.16 in    
Wind  
Wind Speed 3 mph (SSW)    
Max Wind Speed 14 mph    
Max Gust Speed 18 mph    
Visibility 10 miles    
Events Rain    
Averages and records for this station are not official NWS values.
T = Trace of Precipitation, MM = Missing Value Source: NWS Daily Summary

Daily Weather History Graph

Daily Weather History Graph

Search for Another Location

Airport or City:

Trip Planner

Search our weather history database for the weather conditions in past years. The results will help you decide how hot, cold, wet, or windy it might be!

Date:

Astronomy

Sep. 25, 2012 Rise Set
Actual Time 6:52 AM EDT 6:53 PM EDT
Civil Twilight 6:25 AM EDT 7:20 PM EDT
Nautical Twilight 5:53 AM EDT 7:52 PM EDT
Astronomical Twilight 5:21 AM EDT 8:24 PM EDT
Moon 4:17 PM EDT (9/25) 2:10 AM EDT (9/25)
Length of Visible Light 12h 54m
Length of Day
12h 00m
Waxing Gibbous, 80% of the Moon is Illuminated
Sep 25
Waxing Gibbous
Sep 29
Full
Oct 8
Last Quarter
Oct 15
New
Oct 21
First Quarter

Hourly Weather History & Observations

Time (EDT) Temp. Windchill Dew Point Humidity Pressure Visibility Wind Dir Wind Speed Gust Speed Precip Events Conditions
12:55 AM 44.6 °F - 41.0 °F 87% 30.16 in 10.0 mi Calm Calm - N/A   Clear
1:15 AM 44.6 °F - 41.0 °F 87% 30.16 in 10.0 mi Calm Calm - N/A   Clear
1:35 AM 44.6 °F - 41.0 °F 87% 30.16 in 10.0 mi Calm Calm - N/A   Clear
1:55 AM 44.6 °F - 41.0 °F 87% 30.16 in 10.0 mi Calm Calm - N/A   Clear
2:15 AM 44.6 °F - 41.0 °F 87% 30.16 in 10.0 mi Calm Calm - N/A   Clear
2:35 AM 42.8 °F - 41.0 °F 93% 30.16 in 10.0 mi Calm Calm - N/A   Clear
3:15 AM 42.8 °F - 39.2 °F 87% 30.17 in 10.0 mi Calm Calm - N/A   Clear
3:35 AM 42.8 °F - 39.2 °F 87% 30.16 in 10.0 mi Calm Calm - N/A   Clear
3:55 AM 42.8 °F - 39.2 °F 87% 30.16 in 10.0 mi Calm Calm - N/A   Clear
4:15 AM 42.8 °F - 39.2 °F 87% 30.16 in 10.0 mi Calm Calm - N/A   Clear
4:35 AM 42.8 °F - 39.2 °F 87% 30.16 in 10.0 mi Calm Calm - N/A   Clear
4:55 AM 42.8 °F - 39.2 °F 87% 30.17 in 10.0 mi Calm Calm - N/A   Clear
5:15 AM 41.0 °F - 37.4 °F 87% 30.17 in 10.0 mi Calm Calm - N/A   Clear
5:35 AM 42.8 °F - 39.2 °F 87% 30.17 in 10.0 mi Calm Calm - N/A   Clear
5:55 AM 41.0 °F - 37.4 °F 87% 30.17 in 10.0 mi Calm Calm - N/A   Clear
6:15 AM 39.2 °F - 35.6 °F 87% 30.18 in 10.0 mi Calm Calm - N/A   Clear
6:35 AM 41.0 °F - 37.4 °F 87% 30.18 in 10.0 mi Calm Calm - N/A   Clear
6:55 AM 41.0 °F - 39.2 °F 93% 30.18 in 10.0 mi Calm Calm - N/A   Clear
7:15 AM 41.0 °F - 37.4 °F 87% 30.19 in 10.0 mi Calm Calm - N/A   Clear
7:35 AM 41.0 °F - 37.4 °F 87% 30.19 in 10.0 mi Calm Calm - N/A   Clear
7:55 AM 42.8 °F 41.1 °F 41.0 °F 93% 30.20 in 10.0 mi NNW 3.5 mph - N/A   Clear
8:15 AM 44.6 °F - 41.0 °F 87% 30.21 in 10.0 mi Calm Calm - N/A   Clear
8:35 AM 46.4 °F - 41.0 °F 81% 30.21 in 10.0 mi Calm Calm - N/A   Clear
8:55 AM 48.2 °F - 42.8 °F 82% 30.21 in 10.0 mi Calm Calm - N/A   Clear
9:15 AM 50.0 °F - 42.8 °F 76% 30.22 in 10.0 mi Calm Calm - N/A   Clear
9:35 AM 51.8 °F - 42.8 °F 71% 30.22 in 10.0 mi Calm Calm - N/A   Clear
9:55 AM 53.6 °F - 42.8 °F 67% 30.22 in 7.0 mi WSW 3.5 mph - N/A   Clear
10:15 AM 55.4 °F - 42.8 °F 63% 30.20 in 10.0 mi Calm Calm - N/A   Clear
10:35 AM 59.0 °F - 42.8 °F 55% 30.19 in 10.0 mi Calm Calm - N/A   Clear
10:55 AM 60.8 °F - 44.6 °F 55% 30.19 in 10.0 mi Calm Calm - N/A   Clear
11:15 AM 62.6 °F - 44.6 °F 52% 30.18 in 10.0 mi Calm Calm - N/A   Clear
11:35 AM 64.4 °F - 44.6 °F 49% 30.18 in 10.0 mi SSW 5.8 mph - N/A   Clear
11:55 AM 64.4 °F - 44.6 °F 49% 30.18 in 10.0 mi SSW 6.9 mph - N/A   Clear
12:15 PM 64.4 °F - 44.6 °F 49% 30.18 in 10.0 mi SW 5.8 mph - N/A   Clear
12:35 PM 68.0 °F - 44.6 °F 43% 30.19 in 10.0 mi SW 8.1 mph - N/A   Clear
12:55 PM 68.0 °F - 39.2 °F 35% 30.18 in 10.0 mi SW 13.8 mph 18.4 mph N/A   Clear
1:15 PM 68.0 °F - 41.0 °F 37% 30.17 in 10.0 mi SW 8.1 mph 11.5 mph N/A   Clear
1:35 PM 68.0 °F - 42.8 °F 40% 30.16 in 10.0 mi SSW 9.2 mph 16.1 mph N/A   Clear
1:55 PM 69.8 °F - 41.0 °F 35% 30.16 in 10.0 mi SW 6.9 mph - N/A   Clear
2:15 PM 69.8 °F - 42.8 °F 38% 30.16 in 10.0 mi SW 8.1 mph - N/A   Clear
3:15 PM 69.8 °F - 41.0 °F 35% 30.14 in 10.0 mi South 10.4 mph 16.1 mph N/A   Clear
3:35 PM 71.6 °F - 41.0 °F 33% 30.14 in 10.0 mi South 10.4 mph 16.1 mph N/A   Clear
3:55 PM 69.8 °F - 41.0 °F 35% 30.14 in 10.0 mi SSW 10.4 mph - N/A   Clear
4:15 PM 69.8 °F - 42.8 °F 38% 30.13 in 10.0 mi South 12.7 mph 16.1 mph N/A   Clear
4:35 PM 69.8 °F - 42.8 °F 38% 30.14 in 10.0 mi SSW 8.1 mph - N/A   Clear
4:55 PM 69.8 °F - 42.8 °F 38% 30.14 in 10.0 mi SSW 10.4 mph - N/A   Clear
5:15 PM 69.8 °F - 44.6 °F 40% 30.12 in 10.0 mi SSW 8.1 mph - N/A   Clear
5:35 PM 68.0 °F - 44.6 °F 43% 30.13 in 10.0 mi South 10.4 mph - N/A   Clear
5:55 PM 68.0 °F - 44.6 °F 43% 30.13 in 10.0 mi SSW 10.4 mph - N/A   Scattered Clouds
6:15 PM 68.0 °F - 44.6 °F 43% 30.13 in 10.0 mi South 8.1 mph - N/A   Mostly Cloudy
6:35 PM 66.2 °F - 44.6 °F 46% 30.14 in 10.0 mi SSW 8.1 mph - N/A   Mostly Cloudy
6:55 PM 64.4 °F - 46.4 °F 52% 30.13 in 10.0 mi South 8.1 mph - N/A   Scattered Clouds
7:15 PM 64.4 °F - 46.4 °F 52% 30.12 in 10.0 mi South 9.2 mph - N/A   Mostly Cloudy
7:35 PM 64.4 °F - 46.4 °F 52% 30.13 in 10.0 mi SSW 6.9 mph - N/A   Overcast
7:55 PM 64.4 °F - 46.4 °F 52% 30.13 in 10.0 mi SSW 5.8 mph - N/A   Overcast
8:15 PM 64.4 °F - 46.4 °F 52% 30.13 in 10.0 mi South 6.9 mph - N/A   Overcast
8:55 PM 62.6 °F - 48.2 °F 59% 30.12 in 10.0 mi South 3.5 mph - N/A   Clear
9:15 PM 62.6 °F - 48.2 °F 59% 30.12 in 10.0 mi SSW 5.8 mph - N/A   Clear
9:35 PM 62.6 °F - 48.2 °F 59% 30.13 in 10.0 mi SSW 3.5 mph - N/A   Clear
9:55 PM 62.6 °F - 48.2 °F 59% 30.13 in 10.0 mi Calm Calm - N/A   Clear
10:15 PM 62.6 °F - 48.2 °F 59% 30.13 in 10.0 mi South 6.9 mph - N/A   Clear
10:35 PM 62.6 °F - 48.2 °F 59% 30.13 in 10.0 mi South 6.9 mph - N/A   Scattered Clouds
10:55 PM 62.6 °F - 50.0 °F 63% 30.14 in 10.0 mi SSW 6.9 mph - N/A   Mostly Cloudy
11:15 PM 62.6 °F - 50.0 °F 63% 30.13 in 10.0 mi SSW 9.2 mph - N/A   Mostly Cloudy
11:35 PM 62.6 °F - 50.0 °F 63% 30.13 in 10.0 mi South 9.2 mph - N/A   Mostly Cloudy
11:55 PM 62.6 °F - 50.0 °F 63% 30.12 in 10.0 mi South 8.1 mph 16.1 mph N/A Rain Light Rain